Tri Ferris Super Sprint 2016
Skip Navigation Links
Results
Live Leaderboard
Race Info
Past Results
Details
Smartphone Results
08 May 2016
HyperLink
Page 1 of 8 (375 items)
[1]2345678
Pos
Bib No
Fav
Share
Print
Name
Time
Category
Cat Pos
Gender
Gen Pos
Club
Wave
Swim
G/Pos
T1
Cycle
G/Pos
T2
Run
G/Pos
1265Jordan FRAPWELL00:50:51.0D1Male1 08:1300:05:35.4200:00:37.100:28:16.2300:00:39.800:15:42.33
2369Ben PRICE00:52:31.2G1Male2KINETIC ONE08:2300:07:23.86300:01:01.800:28:34.3400:00:33.300:14:57.91
3337Martin PALMER00:52:33.5G2Male3 08:2300:07:33.86800:00:50.800:27:34.6200:00:37.600:15:56.64
4286Philip Kruse00:53:15.1H1Male4SWIMPODIUM08:1800:06:45.72900:00:43.200:28:59.0900:00:37.200:16:09.85
5236George HUGHES00:54:03.2E1Male5CHELTENHAM TRIATHLON CLUB08:1300:05:58.4800:00:56.300:29:33.91900:00:29.000:17:05.414
6355Richard EASTON00:54:08.4G3Male6PURE ENDURANCE TRIATHLETES08:2300:05:53.3600:00:56.300:28:54.7800:00:35.100:17:48.928
7230Ian BARRETT00:54:16.4I1Male7CIRENCESTER TRIATHLON CLUB08:1300:07:06.74200:01:03.300:28:59.71000:00:37.900:16:28.76
8100Nicole WALTERS00:54:18.5E1Female1BW CYCLING08:0000:05:54.2200:00:40.700:28:49.7100:00:36.700:18:17.04
9185Martin ROGERS00:54:27.3J1Male8BOS ACADEMY08:0800:06:31.01600:00:51.300:29:24.91700:00:39.600:17:00.213
10304Laurence HEWETSON00:54:41.1H2Male9BADTRI08:1800:06:38.22400:01:06.900:28:54.0700:00:49.600:17:12.317
11268Alexander JONES00:54:47.7D2Male10 08:1300:06:04.7900:00:47.800:30:11.32900:00:34.700:17:09.016
12309Trevor BATEY00:54:55.6H3Male11RAF TRIATHLON08:1800:07:08.14500:00:40.800:29:08.11300:00:34.500:17:23.921
13190Jack SHAYLER00:55:01.9C1Male12SOUTH CENTRAL ACADEMY08:0800:05:50.2500:00:53.400:30:53.54400:00:40.400:16:44.17
14239Rob BURGESS00:55:09.3E2Male13BATH AMPHIBIANS08:1300:06:47.73100:01:20.700:29:11.81400:00:51.200:16:57.810
15250Jonathan DAVIES00:55:30.6E3Male14BADTRI08:1300:05:48.7400:00:46.000:31:10.55100:00:37.200:17:08.015
16221Russell CLASH00:55:42.5I2Male15 08:1300:06:11.01000:01:20.600:29:20.31500:00:50.400:17:59.933
17370Adam GILES00:56:00.3G4Male16 08:2300:06:32.21800:00:44.800:30:54.74500:00:29.100:17:19.419
18240Chris EMMERSON00:56:10.5E4Male17BADTRI08:1300:07:19.85600:01:18.800:29:04.71200:01:00.400:17:26.622
19177david NIELD00:56:13.7J2Male18TTG/TEAM PASSION FIT08:0800:07:22.06100:01:11.100:29:39.12100:00:33.200:17:28.123
20388Will POOLE00:56:16.2F1Male19BADTRI08:2300:06:56.33300:00:41.800:29:56.62500:00:43.800:17:57.632
21361Luke REED00:56:19.1G5Male20PURE ENDURANCE TRIATHLETES08:2300:06:38.12300:01:00.200:30:36.63500:00:33.100:17:30.924
22285jamie LYAKK00:56:24.6H4Male21EVESHAM VALE TRIATHLETES08:1800:06:40.32500:00:47.500:30:18.33200:00:33.900:18:04.435
23187Jake SMITH00:56:31.1C2Male22NI TRI08:0800:07:02.43600:02:00.700:31:55.87200:00:29.700:15:02.42
24362Ben ASHWELL00:56:38.6G6Male23NATIONWIDE TRIATHLON CLUB08:2300:07:04.84000:00:39.700:30:20.03300:00:37.300:17:56.630
25163Richard SEARLE00:56:41.7J3Male24 08:0800:05:56.1700:01:04.600:30:45.44000:00:58.800:17:56.631
2651Alys MATHEW00:56:42.8G1Female2CLAPHAM CHASERS08:0000:07:13.61400:00:47.100:30:06.1200:00:40.800:17:54.93
27216Gary SMITH00:56:43.4I3Male25 08:1300:08:19.311600:01:16.900:28:36.8500:00:51.600:17:38.726
28379Neil BENNETT00:56:58.5F2Male26TEAM PASSION FIT08:2300:06:42.82600:01:06.100:29:41.72200:00:45.600:18:42.250
29212Alistair CUTHBERT00:57:15.5I4Male27 08:1300:07:08.14400:00:45.100:29:51.32400:00:55.600:18:35.448
30196Neil KERFOOT00:57:43.5I5Male28KINGSWOOD TRI08:1300:06:34.01900:00:41.700:30:16.73100:00:43.800:19:27.268
31359Austin PACKER00:57:45.5G7Male29CHELTENHAM TRIATHLON CLUB08:2300:07:33.26700:01:11.500:29:49.62300:00:37.500:18:33.646
32154Andrew CONRADI00:57:46.0J4Male30 08:0800:08:38.413600:01:03.300:29:30.81800:00:30.500:18:02.834
33188Harry BUTTLE00:57:56.0C3Male31DORSET PENTATHLETES08:0800:05:21.2100:00:59.100:32:53.49000:00:29.800:18:12.437
34246Tommy BRIDEWELL00:58:00.0E5Male32 08:1300:06:44.82800:01:26.100:30:44.53800:00:46.900:18:17.540
35233Liam DIXON00:58:01.1I6Male33RUN SWINDON08:1300:06:55.13200:00:41.600:29:36.52000:00:33.900:20:13.995
36189Ollie CAUTE00:58:10.8C4Male34N1 TRI CLUB08:0800:06:32.01700:02:15.600:30:51.84300:00:49.400:17:41.827
37391Andrew BOSMAN00:58:22.4F3Male35 08:2300:07:21.86000:00:43.300:32:45.88700:00:38.600:16:52.69
38173Adrian WILKINS00:58:36.0J5Male36BADTRI08:0800:06:29.31500:00:47.500:30:59.04600:00:38.500:19:41.477
39398Mathew BISSETT00:58:38.3F4Male37CHELTENHAM TRIATHLON CLUB08:2300:07:37.17100:00:59.000:30:39.93600:00:54.400:18:27.943
40157Jez PRESTON-JONES00:58:38.5J6Male38CHELTENHAM TRIATHLON CLUB08:0800:07:01.63500:00:55.000:30:02.02700:00:38.400:20:01.387
41364Gethin MUSK00:58:47.3G8Male39CIRENCESTER TRIATHLON CLUB08:2300:07:20.05700:01:01.300:29:02.41100:00:50.500:20:32.9111
42312Ben NORMAN00:58:58.3H5Male40HEREFORD TRI CLUB08:1800:07:42.27200:01:24.800:31:37.76200:00:53.200:17:20.420
43384Steven CATHCART00:59:09.2F5Male41 08:2300:06:59.93400:01:18.000:31:21.45600:01:01.000:18:28.844
44144John MARRIOTT00:59:16.7J7Male42TEAM KENNET08:0800:07:09.54600:01:17.800:30:32.43400:00:49.200:19:27.669
45182Richard WALTERS00:59:19.8J8Male43BRECON TRIATHLON CLUB08:0800:08:08.110000:00:59.000:31:17.05400:00:45.600:18:09.836
46272stuart BARR00:59:26.0H6Male44CHELTENHAM TRIATHLON CLUB08:1800:07:14.14900:00:59.600:30:15.13000:01:00.000:19:57.185
47223Sam KENON00:59:37.3I7Male45FLYINGMONK TRIATHLON CLUB08:1300:07:06.54100:00:45.800:31:55.77100:00:44.400:19:04.758
4810Sara NORTHOVER00:59:46.2J1Female3TRIKS08:0000:06:33.8800:01:00.300:32:01.5500:00:43.400:19:27.07
49392Tom MORETON00:59:47.6F6Male46 08:2300:08:44.014400:01:11.700:31:23.55900:00:54.900:17:33.425
50316terry JERVIS00:59:48.9H7Male47 08:1800:08:18.211300:01:16.600:32:22.27600:00:52.200:16:59.512
Page 1 of 8 (375 items)
[1]2345678
fb

HyperLink Copyright (c) G Vincent, 2017